Regional Weather Roundup
Issued by NWS

Home | Current Version | Previous Version | Graphics & Text | Print | Product List | Glossary Off
Versions: 1 2 3 4 5 6 7 8 9 10 11 12 13 14 15 16 17 18 19 20 21 22 23 24 25 26 27 28 29 30 31 32 33 34 35 36 37 38 39 40 41 42 43 44 45 46 47 48 49 50

692
ASUS43 KTOP 091059
RWRKS

WEATHER ROUNDUP FOR KANSAS
NATIONAL WEATHER SERVICE GOODLAND KS
500 AM CST TUE FEB 09 2016

NOTE:  "FAIR" INDICATES FEW OR NO CLOUDS BELOW 12,000 FEET WITH NO
SIGNIFICANT WEATHER AND/OR OBSTRUCTIONS TO VISIBILITY.

KSZ001>006-013>018-027>032-041>047-091200-
NORTHWEST KANSAS

CITY           SKY/WX    TMP DP  RH WIND       PRES   REMARKS
GOODLAND       CLOUDY    22  18  85 NW8       30.21S
HAYS           CLOUDY    36  18  48 NW12      30.20R WCI  27
HILL CITY      MOCLDY    32  22  66 W6        30.21S
RUSSELL        CLOUDY    31  23  72 NW9       30.18S
$$

KSZ061>065-074>080-084>089-091200-
SOUTHWEST KANSAS

CITY           SKY/WX    TMP DP  RH WIND       PRES   REMARKS
DODGE CITY     CLEAR     27  21  78 NW10      30.22S WCI  17
ELKHART          N/A     33  20  59 W10         N/A  WCI  25
GARDEN CITY    CLOUDY    27  23  85 NW9       30.23S
GREAT BEND     CLOUDY    34  18  51 MISG      30.20R
LIBERAL        CLEAR     30  21  69 W9        30.25S
$$

KSZ066>073-081>083-090>101-091200-
SOUTHEAST KANSAS

CITY           SKY/WX    TMP DP  RH WIND       PRES   REMARKS
CHANUTE        CLEAR     27  19  72 NW9       30.09S
COFFEYVILLE    PTCLDY    29  18  63 W8        30.13S
HUTCHINSON     MOCLDY    32  17  54 NW12      30.17R WCI  23
MEDICINE LODGE   N/A     29  20  69 NW8       30.20R
NEWTON         CLEAR     28  16  59 NW12      30.16R WCI  18
PARSONS        CLEAR     29  18  63 NW8       30.11R
WICHITA INTL   PTCLDY    30  18  60 NW10      30.16S WCI  21
WICHITA JABRA  CLEAR     30  18  60 NW14      30.15S WCI  19
WINFIELD       CLEAR     24  18  77 NW7       30.17S
$$

KSZ007>012-019>026-033>040-048>060-102>105-091200-
NORTHEAST KANSAS

CITY           SKY/WX    TMP DP  RH WIND       PRES   REMARKS
CONCORDIA      CLEAR     27  17  66 NW12      30.18R WCI  17
EMPORIA        CLEAR     29  18  63 NW14      30.11R WCI  18
LAWRENCE       CLEAR     26   9  48 NW24G31   30.10R WCI  11
MANHATTAN      CLEAR     28  19  69 VRB3      30.17R
OLATHE IND     CLEAR     25  11  55 NW22G32   30.07R WCI  10
OLATHE EXE     CLEAR     25   7  46 NW18G32   30.05R WCI  11
SALINA         CLEAR     31  17  56 NW13      30.19R WCI  21
TOPEKA BILLARD CLEAR     28  10  46 NW17      30.12R WCI  16
TOPEKA FORBES  CLEAR     28  19  69 NW14      30.09R WCI  17
$$




USA.gov is the U.S. government's official web portal to all federal, state and local government web resources and services.